TimeEDT,TemperatureF,Dew PointF,Humidity,Sea Level PressureIn,VisibilityMPH,Wind Direction,Wind SpeedMPH,Gust SpeedMPH,PrecipitationIn,Events,Conditions,WindDirDegrees,DateUTC
12:51 AM,60.1,54.0,80,30.20,10.0,Calm,Calm,-,N/A,,Partly Cloudy,0,2013-07-30 04:51:00
1:51 AM,57.9,54.0,87,30.20,10.0,Calm,Calm,-,N/A,,Clear,0,2013-07-30 05:51:00
2:51 AM,57.0,53.1,87,30.21,9.0,Calm,Calm,-,N/A,,Clear,0,2013-07-30 06:51:00
3:51 AM,55.9,53.1,90,30.21,9.0,Calm,Calm,-,N/A,,Clear,0,2013-07-30 07:51:00
4:51 AM,55.0,53.1,93,30.22,6.0,SSW,3.5,-,N/A,,Clear,210,2013-07-30 08:51:00
5:51 AM,55.0,53.1,93,30.22,5.0,Calm,Calm,-,N/A,,Clear,0,2013-07-30 09:51:00
6:18 AM,55.4,53.6,94,30.23,2.0,Calm,Calm,-,N/A,,Clear,0,2013-07-30 10:18:00
6:27 AM,55.4,53.6,94,30.24,4.0,Calm,Calm,-,N/A,,Scattered Clouds,0,2013-07-30 10:27:00
6:51 AM,55.9,54.0,93,30.23,5.0,Calm,Calm,-,N/A,,Scattered Clouds,0,2013-07-30 10:51:00
7:51 AM,61.0,55.9,83,30.24,6.0,SW,3.5,-,N/A,,Haze,230,2013-07-30 11:51:00
8:51 AM,64.9,57.9,78,30.24,9.0,WSW,3.5,-,N/A,,Scattered Clouds,240,2013-07-30 12:51:00
9:51 AM,69.1,57.9,68,30.25,10.0,WSW,6.9,-,N/A,,Scattered Clouds,250,2013-07-30 13:51:00
10:51 AM,72.0,57.0,59,30.24,10.0,WNW,5.8,-,N/A,,Scattered Clouds,300,2013-07-30 14:51:00
11:51 AM,73.0,55.9,55,30.23,10.0,WNW,4.6,-,N/A,,Scattered Clouds,290,2013-07-30 15:51:00
12:51 PM,73.9,55.9,53,30.22,10.0,WSW,4.6,-,N/A,,Scattered Clouds,250,2013-07-30 16:51:00
1:51 PM,75.0,55.0,50,30.21,10.0,Variable,5.8,-,N/A,,Scattered Clouds,0,2013-07-30 17:51:00
2:51 PM,75.9,55.9,50,30.21,10.0,West,6.9,-,N/A,,Scattered Clouds,260,2013-07-30 18:51:00
3:51 PM,78.1,54.0,43,30.18,10.0,West,5.8,-,N/A,,Scattered Clouds,260,2013-07-30 19:51:00
4:51 PM,78.1,55.0,45,30.17,10.0,WNW,4.6,-,N/A,,Scattered Clouds,300,2013-07-30 20:51:00
5:51 PM,77.0,55.9,48,30.18,10.0,NW,3.5,-,N/A,,Scattered Clouds,310,2013-07-30 21:51:00
6:51 PM,75.9,57.0,52,30.17,10.0,WNW,3.5,-,N/A,,Mostly Cloudy,290,2013-07-30 22:51:00
7:51 PM,73.0,61.0,66,30.17,10.0,Calm,Calm,-,N/A,,Mostly Cloudy,0,2013-07-30 23:51:00
8:51 PM,71.1,55.9,59,30.16,9.0,Calm,Calm,-,N/A,,Mostly Cloudy,0,2013-07-31 00:51:00
9:51 PM,70.0,57.0,63,30.16,10.0,Calm,Calm,-,N/A,,Mostly Cloudy,0,2013-07-31 01:51:00
10:51 PM,64.0,57.0,78,30.17,10.0,NE,3.5,-,N/A,,Mostly Cloudy,40,2013-07-31 02:51:00
11:51 PM,64.9,59.0,81,30.16,9.0,ENE,4.6,-,N/A,,Mostly Cloudy,60,2013-07-31 03:51:00